COSMOS 1275 DEB, 42097

Orbit data source: Space-Track

COSMOS 1275 DEB, 42097 is space debris in LEO originally from a launch on Thu, 04 Jun 1981 UTC launched from the Plesetsk Missile And Space Complex (PKMTR). Debris objects in space refer to the collection of defunct objects orbiting the Earth. Examples of debris include non-operational satellites, rocket bodies, and fragments generated from explosions, collisions, or faulty payload assembly.

Loading next visibility...
Identifier
42097, 1981-053PH
Orbit
LEO
Country
Flag of CISCIS
Related business
Manufacturer
Unknown
Mission
Spacecraft
Bus & Motor
Unknown
Mass
Unknown
Launch date (UTC)
1981-06-04 (45 years ago)
Launch vehicle
Unknown
Launch site
Plesetsk Missile And Space Complex (PKMTR)
Object type
Payload
Rocket body
Debris
Shape & HBR
Unknown shape, 0.1 m
Radar Cross Section
Small (<0.1 m²)

Expand to show TLE details & history
Last TLE update: 5 days ago

TLE from 5 days ago
0 COSMOS 1275 DEB
1 42097U 81053PH  26127.44585779  .00003072  00000-0  12441-2 0  9992
2 42097  82.8062  31.7777 0055846  87.5330 273.2246 14.26648695185018
Epoch: 2026-05-07T10:42Z
TLE epoch observation values (Epoch: 2026-05-07T10:42:02.113Z)
Latitude
-0.00004°
Longitude
5.977°
Altitude
803.89 km
Speed
7.453 km/s
True Right ascension
02h 07m 06s
True Declination
0° 00' 00"
Sunlit
Object was in daylight at epoch
Visualization orbit readout
Latitude
Unknown
Longitude
Unknown
Altitude
Unknown
Speed
Unknown
Apparent Right ascension
Unknown
Apparent Declination
Unknown
Sunlit
N/A
Visualization observer readout
Local Sidereal Time
17:20:39
Azimuth
Unknown
Elevation
Unknown
Doppler factor
Unknown
Orbital elements
Apogee altitude
840.125 km
Perigee altitude
759.951 km
Semi-major axis
7,178.175 km
Eccentricity
0.00558
Inclination
82.8062°
RAAN
31.7777°
Arg. of periapsis
87.533°
True anomaly
272.58543°
Mean anomaly
273.2246°
Eccentric anomaly
272.90504°
Mean motion
3.5688 °/min
Orbital period
100.87 mins
BSTAR
0.0012441
Loading maneuver chart data...
Computing Atmospheric mass density...
Loading historical data...
Loading historical data...
Loading historical data...
Loading historical data...
Loading historical data...
Loading historical data...
Loading historical data...

Documentation

Showing up to 5 results
|